| time (UTC) | temp F | wind direction | speed knots | gust knots | rain 1hr in | rain 24hr in | rain mn in | humidity % | barometer mb |
| 20260506111546 | 62 | 0 | 0.9 | 7.8 | 0.00 | 0.00 | 0.00 | 73 | 1014.2 |
| 20260506110054 | 61 | 215 | 0.9 | 9.6 | 0.00 | 0.00 | 0.00 | 73 | 1013.9 |
| 20260506104610 | 61 | 250 | 0.9 | 5.2 | 0.00 | 0.00 | 0.00 | 72 | 1013.6 |
| 20260506103053 | 62 | 196 | 1.7 | 7.8 | 0.00 | 0.00 | 0.00 | 71 | 1013.6 |
| 20260506101549 | 62 | 0 | 1.7 | 7.0 | 0.00 | 0.00 | 0.00 | 71 | 1013.7 |
| 20260506100046 | 62 | 0 | 2.6 | 8.7 | 0.00 | 0.00 | 0.00 | 71 | 1013.5 |
| 20260506094549 | 62 | 0 | 0.9 | 5.2 | 0.00 | 0.00 | 0.00 | 70 | 1013.6 |
| 20260506093050 | 63 | 0 | 0.9 | 7.8 | 0.00 | 0.00 | 0.00 | 70 | 1013.7 |
| 20260506091550 | 63 | 234 | 0.9 | 11.3 | 0.00 | 0.00 | 0.00 | 69 | 1014.0 |
| 20260506090048 | 63 | 234 | 0.9 | 6.1 | 0.00 | 0.00 | 0.00 | 69 | 1014.1 |
| 20260506084544 | 63 | 212 | 1.7 | 7.0 | 0.00 | 0.00 | 0.00 | 69 | 1014.1 |
| 20260506083047 | 63 | 241 | 0.9 | 10.4 | 0.00 | 0.00 | 0.00 | 68 | 1013.9 |
| 20260506081557 | 63 | 205 | 2.6 | 10.4 | 0.00 | 0.00 | 0.00 | 68 | 1014.1 |
| 20260506073048 | 63 | 244 | 2.6 | 10.4 | 0.00 | 0.00 | 0.00 | 68 | 1013.9 |
| 20260506071606 | 63 | 0 | 1.7 | 12.2 | 0.00 | 0.00 | 0.00 | 69 | 1013.9 |
| 20260506061546 | 63 | 257 | 0.9 | 4.3 | 0.00 | 0.00 | 0.00 | 66 | 1014.6 |
| 20260506044605 | 65 | 105 | 1.7 | 7.8 | 0.00 | 0.00 | 0.00 | 59 | 1014.9 |
| 20260506043052 | 66 | 173 | 1.7 | 7.8 | 0.00 | 0.00 | 0.00 | 57 | 1014.9 |
| 20260506041553 | 66 | 0 | 0.9 | 9.6 | 0.00 | 0.00 | 0.00 | 55 | 1014.9 |
| 20260506040053 | 67 | 94 | 0.9 | 5.2 | 0.00 | 0.00 | 0.00 | 53 | 1014.7 |
| 20260506034547 | 67 | 199 | 2.6 | 10.4 | 0.00 | 0.00 | 0.00 | 51 | 1014.5 |
| 20260506033048 | 68 | 153 | 2.6 | 10.4 | 0.00 | 0.00 | 0.00 | 50 | 1014.7 |
| 20260506031555 | 69 | 157 | 0.9 | 8.7 | 0.00 | 0.00 | 0.00 | 49 | 1014.4 |
| 20260506030110 | 69 | 157 | 0.0 | 3.5 | 0.00 | 0.00 | 0.00 | 48 | 1014.6 |
| 20260506024549 | 69 | 0 | 0.0 | 6.1 | 0.00 | 0.00 | 0.00 | 48 | 1014.7 |
| 20260506023046 | 70 | 0 | 0.0 | 4.3 | 0.00 | 0.00 | 0.00 | 47 | 1014.9 |
| 20260506021556 | 70 | 67 | 0.0 | 6.1 | 0.00 | 0.00 | 0.00 | 46 | 1014.9 |
| 20260506020050 | 71 | 246 | 0.9 | 5.2 | 0.00 | 0.00 | 0.00 | 46 | 1014.9 |
| 20260506014550 | 71 | 163 | 0.9 | 6.1 | 0.00 | 0.00 | 0.00 | 45 | 1014.7 |
| 20260506013050 | 71 | 0 | 0.0 | 4.3 | 0.00 | 0.00 | 0.00 | 45 | 1014.6 |
| 20260506011555 | 72 | 246 | 0.0 | 2.6 | 0.00 | 0.00 | 0.00 | 44 | 1014.5 |
| 20260506010056 | 72 | 0 | 0.0 | 5.2 | 0.00 | 0.00 | 0.00 | 43 | 1014.3 |
| 20260506004551 | 73 | 186 | 0.9 | 4.3 | 0.00 | 0.00 | 0.00 | 43 | 1014.2 |
| 20260506003050 | 73 | 244 | 0.9 | 4.3 | 0.00 | 0.00 | 0.00 | 41 | 1014.0 |
| 20260506001547 | 74 | 166 | 0.9 | 6.1 | 0.00 | 0.00 | 0.00 | 40 | 1014.1 |
| 20260506000053 | 75 | 205 | 0.0 | 7.8 | 0.00 | 0.00 | 0.00 | 39 | 1014.1 |
| 20260505234607 | 75 | 221 | 0.9 | 14.8 | 0.00 | 0.00 | 0.00 | 38 | 1013.8 |
| 20260505233051 | 76 | 221 | 3.5 | 12.2 | 0.00 | 0.00 | 0.00 | 36 | 1013.7 |
| 20260505231552 | 76 | 215 | 1.7 | 13.0 | 0.00 | 0.00 | 0.00 | 36 | 1013.6 |
| 20260505230051 | 77 | 0 | 1.7 | 10.4 | 0.00 | 0.00 | 0.00 | 35 | 1013.5 |
| 20260505224549 | 77 | 200 | 2.6 | 10.4 | 0.00 | 0.00 | 0.00 | 35 | 1013.6 |
| 20260505223055 | 77 | 213 | 0.0 | 12.2 | 0.00 | 0.00 | 0.00 | 34 | 1013.7 |
| 20260505221548 | 78 | 243 | 3.5 | 13.9 | 0.00 | 0.00 | 0.00 | 34 | 1013.8 |
| 20260505220050 | 78 | 170 | 3.5 | 12.2 | 0.00 | 0.00 | 0.00 | 35 | 1013.8 |
| 20260505214554 | 78 | 217 | 3.5 | 16.5 | 0.00 | 0.00 | 0.00 | 34 | 1014.0 |
| 20260505213043 | 79 | 232 | 2.6 | 8.7 | 0.00 | 0.00 | 0.00 | 33 | 1013.9 |
| 20260505211601 | 79 | 0 | 3.5 | 16.5 | 0.00 | 0.00 | 0.00 | 32 | 1014.1 |
| 20260505210048 | 80 | 279 | 0.9 | 11.3 | 0.00 | 0.00 | 0.00 | 32 | 1014.1 |
| 20260505204549 | 79 | 228 | 4.3 | 15.6 | 0.00 | 0.00 | 0.00 | 32 | 1014.1 |
| 20260505203110 | 80 | 171 | 2.6 | 9.6 | 0.00 | 0.00 | 0.00 | 32 | 1014.5 |
| 20260505201543 | 79 | 167 | 4.3 | 15.6 | 0.00 | 0.00 | 0.00 | 32 | 1014.4 |
| 20260505200040 | 80 | 105 | 2.6 | 12.2 | 0.00 | 0.00 | 0.00 | 30 | 1014.5 |
| 20260505194549 | 80 | 177 | 2.6 | 11.3 | 0.00 | 0.00 | 0.00 | 32 | 1014.8 |
| 20260505193049 | 79 | 134 | 3.5 | 12.2 | 0.00 | 0.00 | 0.00 | 35 | 1015.0 |
| 20260505191550 | 79 | 169 | 4.3 | 11.3 | 0.00 | 0.00 | 0.00 | 34 | 1015.1 |
| 20260505190043 | 79 | 261 | 1.7 | 9.6 | 0.00 | 0.00 | 0.00 | 34 | 1015.3 |
| 20260505184550 | 78 | 151 | 2.6 | 13.0 | 0.00 | 0.00 | 0.00 | 36 | 1015.7 |
| 20260505183050 | 78 | 209 | 4.3 | 20.9 | 0.00 | 0.00 | 0.00 | 35 | 1015.8 |
| 20260505181551 | 77 | 146 | 2.6 | 13.0 | 0.00 | 0.00 | 0.00 | 35 | 1016.0 |
| 20260505180056 | 78 | 216 | 3.5 | 8.7 | 0.00 | 0.00 | 0.00 | 35 | 1016.3 |
| 20260505174551 | 76 | 246 | 2.6 | 14.8 | 0.00 | 0.00 | 0.00 | 38 | 1016.2 |
| 20260505173057 | 76 | 225 | 4.3 | 11.3 | 0.00 | 0.00 | 0.00 | 37 | 1016.3 |
| 20260505171559 | 77 | 97 | 1.7 | 10.4 | 0.00 | 0.00 | 0.00 | 38 | 1016.3 |
| 20260505170055 | 77 | 190 | 1.7 | 7.8 | 0.00 | 0.00 | 0.00 | 37 | 1016.6 |
| 20260505164551 | 76 | 186 | 2.6 | 14.8 | 0.00 | 0.00 | 0.00 | 37 | 1016.7 |
| 20260505163051 | 77 | 167 | 0.9 | 9.6 | 0.00 | 0.00 | 0.00 | 38 | 1016.8 |
| 20260505161553 | 76 | 86 | 2.6 | 7.8 | 0.00 | 0.00 | 0.00 | 37 | 1016.8 |
| 20260505153053 | 75 | 208 | 1.7 | 8.7 | 0.00 | 0.00 | 0.00 | 43 | 1017.2 |
| 20260505151551 | 73 | 211 | 1.7 | 7.0 | 0.00 | 0.00 | 0.00 | 46 | 1017.3 |
| 20260505124551 | 62 | 0 | 0.9 | 6.1 | 0.00 | 0.00 | 0.00 | 66 | 1017.1 |
| 20260505123054 | 61 | 212 | 0.9 | 8.7 | 0.00 | 0.00 | 0.00 | 68 | 1016.9 |
| 20260505121549 | 60 | 0 | 0.9 | 11.3 | 0.00 | 0.00 | 0.00 | 70 | 1017.0 |
| 20260505120106 | 59 | 209 | 0.0 | 7.8 | 0.00 | 0.00 | 0.00 | 71 | 1016.9 |
| 20260505114547 | 58 | 161 | 0.9 | 7.8 | 0.00 | 0.00 | 0.00 | 72 | 1017.0 |
| 20260505113057 | 56 | 0 | 0.0 | 4.3 | 0.00 | 0.00 | 0.00 | 74 | 1016.8 |